Weather History for Fort Collins, CO

Change the Weather History Date:

Tuesday, December 25, 2012

  Actual Average Record
Temperature  
Mean Temperature 8 °F -  
Max Temperature 15 °F 41 °F 62 °F (2005)
Min Temperature 1 °F 16 °F 0 °F (2006)
Degree Days  
Heating Degree Days 57    
Moisture  
Dew Point 6 °F    
Average Humidity 83    
Maximum Humidity 100    
Minimum Humidity 67    
Precipitation  
Precipitation 0.00 in - - ()
Sea Level Pressure  
Sea Level Pressure 30.12 in    
Wind  
Wind Speed 6 mph (East)    
Max Wind Speed 12 mph    
Max Gust Speed -    
Visibility 7 miles    
Events      
Averages and records for this station are not official NWS values.
T = Trace of Precipitation, MM = Missing Value Source: NWS Daily Summary

Daily Weather History Graph

Daily Weather History Graph

Search for Another Location

Airport:

Trip Planner

Search our weather history database for the weather conditions in past years. The results will help you decide how hot, cold, wet, or windy it might be!

Date:

Astronomy

Dec. 25, 2012 Rise Set
Actual Time 7:21 AM MST 4:39 PM MST
Civil Twilight 6:50 AM MST 5:10 PM MST
Nautical Twilight 6:16 AM MST 5:44 PM MST
Astronomical Twilight 5:43 AM MST 6:17 PM MST
Moon 2:49 PM MST (12/25) 4:56 AM MST (12/25)
Length of Visible Light 10h 19m
Length of Day
9h 17m
Waxing Gibbous, 94% of the Moon is Illuminated
Dec 25
Waxing Gibbous
Dec 28
Full
Jan 4
Last Quarter
Jan 11
New
Jan 18
First Quarter

Hourly Weather History & Observations

Time (MST) Temp. Windchill Dew Point Humidity Pressure Visibility Wind Dir Wind Speed Gust Speed Precip Events Conditions
12:15 AM 15.8 °F 3.4 °F 12.2 °F 86% 29.97 in 2.5 mi NE 10.4 mph - N/A   Overcast
12:35 AM 15.8 °F 4.2 °F 10.4 °F 79% 29.98 in 3.0 mi NE 9.2 mph - N/A   Overcast
12:55 AM 15.8 °F 2.7 °F 10.4 °F 79% 29.99 in 3.0 mi NE 11.5 mph - N/A   Overcast
1:15 AM 14.0 °F 2.9 °F 10.4 °F 86% 30.00 in 5.0 mi NE 8.1 mph - N/A   Overcast
1:35 AM 14.0 °F 3.9 °F 10.4 °F 86% 30.01 in 7.0 mi NE 6.9 mph - N/A   Overcast
1:55 AM 14.0 °F 6.5 °F 10.4 °F 86% 30.03 in 8.0 mi NNE 4.6 mph - N/A   Overcast
2:35 AM 14.0 °F 2.9 °F 10.4 °F 86% 30.06 in 5.0 mi NE 8.1 mph - N/A   Overcast
2:55 AM 12.2 °F 0.7 °F 8.6 °F 85% 30.07 in 5.0 mi ENE 8.1 mph - N/A   Overcast
3:15 AM 12.2 °F 1.7 °F 8.6 °F 85% 30.07 in 4.0 mi ENE 6.9 mph - N/A   Overcast
3:35 AM 12.2 °F -1.0 °F 8.6 °F 85% 30.08 in 2.5 mi ENE 10.4 mph - N/A   Overcast
3:55 AM 12.2 °F 0.7 °F 8.6 °F 85% 30.08 in 2.0 mi East 8.1 mph - N/A   Overcast
4:15 AM 12.2 °F 1.7 °F 8.6 °F 85% 30.09 in 3.0 mi East 6.9 mph - N/A   Overcast
4:35 AM 12.2 °F 4.3 °F 8.6 °F 85% 30.10 in 5.0 mi ENE 4.6 mph - N/A   Overcast
4:55 AM 12.2 °F 6.1 °F 8.6 °F 85% 30.10 in 3.0 mi ENE 3.5 mph - N/A   Overcast
5:35 AM 10.4 °F 2.2 °F 8.6 °F 92% 30.12 in 2.5 mi ENE 4.6 mph - N/A   Overcast
5:55 AM 10.4 °F -0.4 °F 6.8 °F 85% 30.14 in 2.5 mi ENE 6.9 mph - N/A   Overcast
6:15 AM 10.4 °F 2.2 °F 6.8 °F 85% 30.14 in 2.0 mi ENE 4.6 mph - N/A   Overcast
6:35 AM 10.4 °F 2.2 °F 6.8 °F 85% 30.15 in 3.0 mi ENE 4.6 mph - N/A   Overcast
6:55 AM 8.6 °F 2.0 °F 5.0 °F 85% 30.16 in 2.5 mi East 3.5 mph - N/A   Overcast
7:35 AM 8.6 °F - 5.0 °F 85% 30.17 in 10.0 mi Calm Calm - N/A   Clear
7:55 AM 8.6 °F - 6.8 °F 92% 30.18 in 7.0 mi Calm Calm - N/A   Partly Cloudy
8:15 AM 8.6 °F - 6.8 °F 92% 30.18 in 7.0 mi Calm Calm - N/A   Partly Cloudy
8:55 AM 10.4 °F - 6.8 °F 85% 30.20 in 1.5 mi Calm Calm - N/A   Overcast
9:35 AM 12.2 °F - 8.6 °F 85% 30.21 in 4.0 mi Calm Calm - N/A   Mostly Cloudy
9:55 AM 12.2 °F - 6.8 °F 79% 30.21 in 5.0 mi Calm Calm - N/A   Mostly Cloudy
10:15 AM 10.4 °F - 6.8 °F 85% 30.22 in 9.0 mi Calm Calm - N/A   Mostly Cloudy
10:35 AM 12.2 °F - 6.8 °F 79% 30.21 in 7.0 mi Calm Calm - N/A   Mostly Cloudy
10:55 AM 12.2 °F - 8.6 °F 85% 30.21 in 10.0 mi Calm Calm - N/A   Partly Cloudy
11:35 AM 14.0 °F 8.2 °F 8.6 °F 79% 30.19 in 10.0 mi ESE 3.5 mph - N/A   Clear
12:15 PM 14.0 °F 8.2 °F 8.6 °F 79% 30.17 in 10.0 mi ESE 3.5 mph - N/A   Partly Cloudy
12:35 PM 14.0 °F 6.5 °F 8.6 °F 79% 30.16 in 10.0 mi ESE 4.6 mph - N/A   Scattered Clouds
12:55 PM 14.0 °F 8.2 °F 8.6 °F 79% 30.16 in 10.0 mi SE 3.5 mph - N/A   Partly Cloudy
1:15 PM 14.0 °F 3.9 °F 6.8 °F 73% 30.14 in 10.0 mi ESE 6.9 mph - N/A   Clear
1:35 PM 14.0 °F 5.1 °F 6.8 °F 73% 30.15 in 10.0 mi SE 5.8 mph - N/A   Clear
1:55 PM 14.0 °F 5.1 °F 6.8 °F 73% 30.14 in 10.0 mi SE 5.8 mph - N/A   Clear
2:15 PM 14.0 °F 2.9 °F 6.8 °F 73% 30.13 in 10.0 mi SE 8.1 mph - N/A   Clear
2:35 PM 15.8 °F 6.1 °F 6.8 °F 68% 30.13 in 10.0 mi SE 6.9 mph - N/A   Clear
2:55 PM 14.0 °F 6.5 °F 5.0 °F 67% 30.12 in 10.0 mi SSE 4.6 mph - N/A   Clear
3:15 PM 12.2 °F 4.3 °F 5.0 °F 73% 30.13 in 10.0 mi SE 4.6 mph - N/A   Clear
3:35 PM 14.0 °F 5.1 °F 6.8 °F 73% 30.13 in 10.0 mi ESE 5.8 mph - N/A   Clear
3:55 PM 12.2 °F 2.9 °F 6.8 °F 79% 30.12 in 10.0 mi ESE 5.8 mph - N/A   Clear
4:15 PM 12.2 °F 1.7 °F 3.2 °F 67% 30.12 in 10.0 mi ESE 6.9 mph - N/A   Clear
4:35 PM 8.6 °F -2.6 °F 1.4 °F 73% 30.12 in 10.0 mi East 6.9 mph - N/A   Clear
4:55 PM 6.8 °F -4.8 °F 1.4 °F 79% 30.13 in 10.0 mi ESE 6.9 mph - N/A   Clear
5:15 PM 6.8 °F -4.8 °F 1.4 °F 79% 30.14 in 10.0 mi East 6.9 mph - N/A   Clear
5:35 PM 6.8 °F -3.5 °F 3.2 °F 85% 30.14 in 10.0 mi ESE 5.8 mph - N/A   Clear
5:55 PM 6.8 °F -3.5 °F 1.4 °F 79% 30.14 in 10.0 mi ESE 5.8 mph - N/A   Clear
6:15 PM 6.8 °F -2.0 °F 3.2 °F 85% 30.14 in 10.0 mi ESE 4.6 mph - N/A   Clear
6:35 PM 3.2 °F - -0.4 °F 85% 30.14 in 10.0 mi Calm Calm - N/A   Clear
7:15 PM 3.2 °F - 1.4 °F 92% 30.14 in 10.0 mi Calm Calm - N/A   Clear
7:35 PM 3.2 °F -4.2 °F -0.4 °F 85% 30.13 in 10.0 mi NNE 3.5 mph - N/A   Clear
7:55 PM 5.0 °F - 1.4 °F 85% 30.12 in 10.0 mi Calm Calm - N/A   Clear
8:15 PM 5.0 °F - 1.4 °F 85% 30.12 in 10.0 mi Calm Calm - N/A   Clear
8:35 PM 6.8 °F - 3.2 °F 85% 30.10 in 10.0 mi Calm Calm - N/A   Clear
8:55 PM 5.0 °F - 3.2 °F 92% 30.09 in 10.0 mi Calm Calm - N/A   Clear
9:15 PM 6.8 °F - 3.2 °F 85% 30.08 in 10.0 mi Calm Calm - N/A   Clear
9:35 PM 3.2 °F - 3.2 °F 100% 30.07 in 9.0 mi Calm Calm - N/A   Clear
9:55 PM 3.2 °F - 3.2 °F 100% 30.07 in 1.8 mi Calm Calm - N/A   Clear
10:15 PM 3.2 °F - -0.4 °F 85% 30.05 in 0.2 mi Calm Calm - N/A   Overcast
10:35 PM 3.2 °F - -0.4 °F 85% 30.04 in 1.2 mi Calm Calm - N/A   Scattered Clouds
11:15 PM 1.4 °F - 1.4 °F 100% 30.03 in 0.2 mi Calm Calm - N/A   Overcast
11:35 PM 1.4 °F - -2.2 °F 85% 30.03 in 0.8 mi Calm Calm - N/A   Mostly Cloudy